TimeCST,TemperatureF,Dew PointF,Humidity,Sea Level PressureIn,VisibilityMPH,Wind Direction,Wind SpeedMPH,Gust SpeedMPH,PrecipitationIn,Events,Conditions,WindDirDegrees,DateUTC
12:53 AM,55.0,52.0,89,29.97,10.0,South,3.5,-,N/A,,Clear,180,2012-12-18 06:53:00
1:53 AM,59.0,55.9,90,29.96,10.0,South,6.9,-,N/A,,Clear,180,2012-12-18 07:53:00
2:53 AM,57.9,55.0,90,29.95,10.0,South,5.8,-,N/A,,Clear,180,2012-12-18 08:53:00
3:53 AM,55.0,53.1,93,29.95,10.0,SSW,4.6,-,N/A,,Clear,210,2012-12-18 09:53:00
4:53 AM,55.0,52.0,89,29.94,9.0,SSW,5.8,-,N/A,,Clear,200,2012-12-18 10:53:00
5:53 AM,53.1,51.1,93,29.94,7.0,Calm,Calm,-,N/A,,Clear,0,2012-12-18 11:53:00
6:50 AM,51.8,48.2,88,29.95,1.8,South,3.5,-,N/A,,Clear,190,2012-12-18 12:50:00
6:53 AM,51.1,50.0,96,29.95,1.0,SSW,3.5,-,N/A,,Clear,200,2012-12-18 12:53:00
7:00 AM,51.8,50.0,94,29.95,0.5,SSW,3.5,-,N/A,Fog,Fog,200,2012-12-18 13:00:00
7:34 AM,51.8,50.0,94,29.96,1.5,South,4.6,-,N/A,,Clear,190,2012-12-18 13:34:00
7:41 AM,51.8,51.8,100,29.96,3.0,South,4.6,-,N/A,,Clear,190,2012-12-18 13:41:00
7:53 AM,57.0,55.0,93,29.96,5.0,South,4.6,-,N/A,,Clear,190,2012-12-18 13:53:00
8:53 AM,66.0,63.0,90,29.98,9.0,South,4.6,-,N/A,,Clear,180,2012-12-18 14:53:00
9:53 AM,75.0,64.0,69,29.98,10.0,South,11.5,-,N/A,,Clear,170,2012-12-18 15:53:00
10:53 AM,80.1,62.1,54,29.96,10.0,South,15.0,-,N/A,,Clear,170,2012-12-18 16:53:00
11:53 AM,82.9,63.0,51,29.93,10.0,SSE,17.3,-,N/A,,Clear,160,2012-12-18 17:53:00
12:53 PM,82.9,64.0,53,29.90,9.0,SSE,18.4,25.3,N/A,,Clear,160,2012-12-18 18:53:00
1:53 PM,84.0,64.9,53,29.86,9.0,SE,19.6,25.3,N/A,,Clear,140,2012-12-18 19:53:00
2:53 PM,82.9,66.0,56,29.85,9.0,SE,19.6,25.3,N/A,,Clear,140,2012-12-18 20:53:00
3:53 PM,80.1,66.9,64,29.83,9.0,SSE,20.7,27.6,N/A,,Clear,160,2012-12-18 21:53:00
4:53 PM,78.1,69.1,74,29.83,9.0,SSE,18.4,26.5,N/A,,Scattered Clouds,150,2012-12-18 22:53:00
5:02 PM,78.8,69.8,74,29.83,9.0,SSE,20.7,26.5,N/A,,Mostly Cloudy,150,2012-12-18 23:02:00
5:49 PM,75.2,69.8,83,29.83,8.0,SSE,17.3,-,N/A,,Overcast,150,2012-12-18 23:49:00
5:53 PM,75.9,70.0,82,29.83,8.0,SSE,18.4,-,N/A,,Overcast,150,2012-12-18 23:53:00
6:24 PM,75.2,69.8,83,29.83,8.0,SSE,15.0,-,N/A,,Scattered Clouds,150,2012-12-19 00:24:00
6:53 PM,75.0,70.0,84,29.83,8.0,SSE,12.7,21.9,N/A,,Clear,150,2012-12-19 00:53:00
7:53 PM,75.0,70.0,84,29.85,7.0,SSE,16.1,-,N/A,,Partly Cloudy,150,2012-12-19 01:53:00
8:53 PM,75.0,70.0,84,29.86,7.0,SSE,15.0,-,N/A,,Partly Cloudy,150,2012-12-19 02:53:00
9:53 PM,75.0,70.0,84,29.86,7.0,SSE,16.1,21.9,N/A,,Partly Cloudy,150,2012-12-19 03:53:00
10:53 PM,75.0,70.0,84,29.86,7.0,SSE,16.1,-,N/A,,Scattered Clouds,150,2012-12-19 04:53:00
11:53 PM,73.9,70.0,87,29.85,7.0,SSE,15.0,-,N/A,,Clear,150,2012-12-19 05:53:00